Regional Weather Roundup
Issued by NWS

Home | Current Version | Previous Version | Graphics & Text | Print | Product List | Glossary On
Versions: 1 2 3 4 5 6 7 8 9 10 11 12 13 14 15 16 17 18 19 20 21 22 23 24 25 26 27 28 29 30 31 32 33 34 35 36 37 38 39 40 41 42 43 44 45 46 47 48 49 50
000
ASUS43 KDMX 170401
RWRIA

WEATHER ROUNDUP FOR IOWA
NATIONAL WEATHER SERVICE DES MOINES IA
1000 PM CST MON JAN 16 2017

NOTE: "FAIR" INDICATES FEW OR NO CLOUDS BELOW 12,000 FEET WITH NO
SIGNIFICANT WEATHER AND/OR OBSTRUCTIONS TO VISIBILITY.

* - THESE STATIONS ARE NOT NWS STATIONS...THUS NOT UNDER NWS
QUALITY CONTROL.  THEY ALSO DO NOT REPORT WEATHER SUCH
AS PRECIPITATION OR FOG.

IAZ001>003-012>014-020>022-031>034-043>046-170500-
   NORTHWEST IOWA

CITY           SKY/WX    TMP DP  RH WIND       PRES   REMARKS
CARROLL *      CLOUDY    34  34 100 N9        29.91S FOG     WCI  26
CHEROKEE *     CLOUDY    32  32 100 CALM      29.94S
DENISON *      CLOUDY    32  32 100 N6        29.91S FOG     WCI  26
LE MARS *      CLOUDY    34  32  93 NW9       29.98R WCI  26
ORANGE CITY *  CLOUDY    32  32 100 N5        29.95S WCI  27
SHELDON *      CLOUDY    32  32 100 N8        29.94R WCI  25
SIOUX CITY     CLOUDY    33  31  92 NW16      29.97S FOG     WCI  23
SPENCER        MIX PCPN  32  31  96 N8        29.93F WCI  25
STORM LAKE *   CLOUDY    32  32 100 N7        29.92S FOG     WCI  26
$$

IAZ055>058-069>071-079>083-090>094-170500-
   SOUTHWEST IOWA

CITY           SKY/WX    TMP DP  RH WIND       PRES   REMARKS
ATLANTIC *     CLOUDY    34  32  93 N10       29.91F FOG     WCI  26
AUDUBON *      CLOUDY    32  30  93 N3        29.91F FOG
CLARINDA *     CLOUDY    34  34 100 N8        29.94R WCI  27
COUNCIL BLFS * CLOUDY    32  32 100 NW10      29.94R FOG     WCI  24
CRESTON *      FOG       32  32 100 NW12      29.89S VSB 1/2 WCI  23
HARLAN  *      CLOUDY    32  32 100 NW12      29.96S FOG     WCI  23
LAMONI         CLOUDY    33  33 100 N8        29.86S FOG     WCI  26
RED OAK *      CLOUDY    34  34 100 N8        29.93S WCI  27
SHENANDOAH *   CLOUDY    34  34 100 NW8       29.95R WCI  27
$$

IAZ047>049-059>061-072>074-084-170500-
   CENTRAL IOWA

CITY           SKY/WX    TMP DP  RH WIND       PRES   REMARKS
AMES           CLOUDY    33  33 100 NW7       29.89R FOG     WCI  27
ANKENY *       FOG       32  32 100 NW6       29.89S VSB 1/2 WCI  26
BOONE *        FOG       32  32 100 NW7       29.87F VSB 1/4 WCI  26
CHARITON *     CLOUDY    34  32  93 NW7       29.86S FOG     WCI  28
DES MOINES     FOG       33  33 100 NW7       29.89R VSB 1/4 WCI  27
GRINNELL*      FOG       33  33  99 CALM      29.86F VSB 3/4
KNOXVILLE *    LGT RAIN  34  34 100 N3        29.85S VSB 1/4
MARSHALLTOWN   FOG       33  33 100 NE3       29.86F VSB 1
NEWTON *       CLOUDY    34  32  93 NE5       29.85F FOG     WCI  30
PELLA *        DRZL/FOG  33  33  99 N6        29.88S VSB 1   WCI  28
PERRY *        FOG       33  33 100 NW5       29.90R VSB 3/4 WCI  29
$$

IAZ004>006-015-016-023>025-035-036-170500-
   NORTH CENTRAL IOWA

CITY           SKY/WX    TMP DP  RH WIND       PRES   REMARKS
ALGONA *       LGT RAIN  32  32 100 N8        29.91F WCI  25
CLARION *      CLOUDY    32  32 100 N6        29.90S FOG     WCI  26
ESTHERVILLE    FRZ RAIN  31  31 100 N10       29.92F FOG     WCI  22
FORT DODGE *   CLOUDY    32  30  93 CALM      29.91F
MASON CITY     CLOUDY    32  31  96 NE8       29.90F FOG     WCI  25
FOREST CITY *  CLOUDY    32  32 100 NE6       29.90F FOG     WCI  26
WEBSTER CITY * FOG       32  32 100 N9        29.88S VSB 1   WCI  24
IOWA FALLS *   FOG       33  32  96 CALM      29.89S VSB 1
$$

IAZ007>011-017>019-026>030-037>042-050>054-066-170500-
   NORTHEAST IOWA

CITY           SKY/WX    TMP DP  RH WIND       PRES   REMARKS
CEDAR RAPIDS   LGT RAIN  34  33  96 NE5       29.85F VSB 3/4 WCI  30
CHARLES CITY * CLOUDY    34  34 100 MISG      29.89S FOG
CLINTON *      LGT RAIN  36  35  96 E8        29.85F VSB 3/4 WCI  30
DECORAH *      CLOUDY    32  32 100 CALM      29.89S FOG
DUBUQUE        FOG       33  32  96 NE7       29.86F VSB 1/4 WCI  27
MONTICELLO *   LGT RAIN  34  34 100 NE3       29.86F
OELWEIN *      CLOUDY    34  34 100 E8        29.87F FOG     WCI  27
WATERLOO       CLOUDY    33  32  96 NE3       29.88S FOG
$$

IAZ064-065-067-068-078-170500-
   EAST CENTRAL IOWA

CITY           SKY/WX    TMP DP  RH WIND       PRES   REMARKS
DAVENPORT      LGT RAIN  35  35 100 NE5       29.85S VSB 1/4 WCI  31
IOWA CITY      LGT RAIN  37  36  96 N3        29.87F FOG
MUSCATINE *    LGT RAIN  37  37 100 NE5       29.85F WCI  34
QUAD CITIES    LGT RAIN  37  35  92 CALM      29.83F VSB 1/2
$$

IAZ062-063-075>077-085>089-095>099-170500-
   SOUTHEAST IOWA

CITY           SKY/WX    TMP DP  RH WIND       PRES   REMARKS
BURLINGTON     LGT RAIN  39  39 100 CALM      29.82F FOG
FAIRFIELD *    CLOUDY    37  37 100 N5        29.83F FOG     WCI  34
FORT MADISON * LGT RAIN  39  39 100 CALM      29.84F VSB 1
KEOKUK *       RAIN      41  41 100 CALM      29.83F
OSKALOOSA *    DRZL/FOG  34  34 100 N6        29.85S VSB 3/4 WCI  29
CENTERVILLE *  CLOUDY    36  36 100 CALM      29.85F FOG
OTTUMWA        LGT RAIN  36  36 100 NW7       29.84S FOG     WCI  30
WASHINGTON *   LGT RAIN  36  36 100 N5        29.86S VSB 1/4 WCI  32
$$

ABBREVIATIONS USED IN REMARKS
   TC - TEMPERATURES IN CELSIUS
  WCI - WIND CHILL INDEX
   HX - HEAT INDEX
  VSB - VISIBILITY
$$





USA.gov is the U.S. government's official web portal to all federal, state and local government web resources and services.